Tracking 17145 objects as of 30-May-2015
HD Live streaming from Space Station

KOMPSAT 3

Track KOMPSAT 3 now!
10-day predictions
KOMPSAT 3 is classified as:


NORAD ID: 38338
Int'l Code: 2012-025B
Perigee: 688.5 km
Apogee: 703.5 km
Inclination: 98.1 °
Period: 98.5 minutes
Semi major axis: 7067 km
RCS: 5.2993 m2 (large)
Launch date: May 17, 2012
Source: South Korea (SKOR)
Your satellite tracking list
Your tracking list is empty





NASA's NSSDC Master Catalog

Two Line Element Set (TLE):
1 38338U 12025B   15150.43988681  .00000225  00000-0  54946-4 0  9995
2 38338 098.1256 088.3792 0010553 149.1192 211.0613 14.61335202161825

Source of the keplerian elements: AFSPC

N2YO: 280